Regional Weather Roundup
Issued by NWS

Home | Current Version | Previous Version | Graphics & Text | Print | Product List | Glossary On
Versions: 1 2 3 4 5 6 7 8 9 10 11 12 13 14 15 16 17 18 19 20 21 22 23 24 25 26 27
000
ASUS45 KBOU 280607
RWRCO

WEATHER ROUNDUP FOR COLORADO
NATIONAL WEATHER SERVICE DENVER/BOULDER CO
1200 AM MDT FRI APR 28 2017

NOTE: "FAIR" INDICATES FEW OR NO CLOUDS BELOW 12000 FEET WITH NO
SIGNIFICANT WEATHER AND/OR OBSTRUCTIONS TO VISIBILITY.

COZ001>005-013-030-031-280700-
...NORTHWEST COLORADO...

CITY           SKY/WX    TMP DP  RH WIND       PRES   REMARKS
CRAIG          CLOUDY    33  24  69 SW9       29.77F WCI  25
HAYDEN         FAIR      30  23  74 W8        29.76F WCI  23
MEEKER         CLOUDY    32  28  85 CALM      29.78F
MOUNT WERNER   NOT AVBL
STEAMBOAT SPGS CLOUDY    31  25  79 SW3       29.75F
WALDEN           N/A     27  21  80 SW5       29.73S WCI  21
$$

COZ006>008-011-280700-
...WEST CENTRAL VALLEYS...

CITY           SKY/WX    TMP DP  RH WIND       PRES   REMARKS
GRAND JUNCTION CLOUDY    44  28  53 N7        29.76S
MONTROSE       FAIR      36  17  46 S8        29.77F
EAGLE          FAIR      34  24  67 SW6       29.78F WCI  29
RIFLE          MOCLDY    33  28  81 S5        29.78F WCI  29
DELTA          FAIR      40  22  49 NE6       29.75S
NUCLA          FAIR      34   9  35 SE3       29.81R
$$

COZ017>023-064>068-280700-
...SOUTHWEST COLORADO...

CITY           SKY/WX    TMP DP  RH WIND       PRES   REMARKS
DURANGO        MOCLDY    41  11  29 NW10G21   29.76S
CORTEZ         FAIR      41  20  43 N7        29.77F
PAGOSA SPRINGS CLOUDY    36  13  39 W3        29.78R
TELLURIDE      CLOUDY    30   9  41 W5        29.82R WCI  25
WOLF CREEK PAS FAIR      16   0  48 W8        29.84S WCI   5
$$

COZ009-010-012-014-032>034-037-058>063-280700-
...CENTRAL COLORADO...

CITY           SKY/WX    TMP DP  RH WIND       PRES   REMARKS
ASPEN          CLOUDY    29  24  82 SE6       29.77F WCI  23
BUENA VISTA    LGT SNOW  30  24  76 NW14G25   29.75F WCI  20
COPPER MTN     CLOUDY    19  14  79 MISG      29.74F
BERTHOUD PASS  CLOUDY    10   0  61 MISG      29.68F
COTTONWOOD PAS LGT SNOW  28  21  74 NW10      29.73F WCI  19
GUNNISON       FAIR      30  22  72 CALM      29.76F
KREMMLING      CLOUDY    36  25  64 CALM      29.77F
LEADVILLE      LGT SNOW  20  17  88 NW6       29.73F VSB 1   WCI  12
MONARCH PASS     N/A     16  14  93 W24       29.86F WCI  -3
SALIDA         FAIR      34  22  62 NW8       29.80F WCI  27
SUNLIGHT       MOCLDY    18  14  86 W7        29.82S WCI   8
WILKERSON PASS FAIR      18  14  86 W8G17     29.74F WCI   7
$$

COZ069>075-280700-
...SAN LUIS VALLEY/SANGRE DE CRISTO MOUNTAINS...

CITY           SKY/WX    TMP DP  RH WIND       PRES   REMARKS
ALAMOSA        FAIR      31  19  61 N6        29.74R WCI  25
LA VETA PASS   FAIR      27  14  59 SW9       29.85R WCI  17
SAGUACHE       FAIR      32  16  51 N13G22    29.73F WCI  22
$$

COZ035-036-038>040-280700-
...NORTHERN COLORADO FRONT RANGE...

CITY           SKY/WX    TMP DP  RH WIND       PRES   REMARKS
DENVER INTL AP MOCLDY    33  29  85 SE7       29.63F WCI  27
DMNS CITY PARK   N/A     44  16  31 W7G14     29.64S
AURORA         MOCLDY    40  20  45 W9        29.64F
FRONT RANGE AP FAIR      37  34  87 SE10      29.64S
ERIE MUNI ARPT FAIR      35  30  81 S3        29.63F
BOULDER MUN AP FAIR      39  32  75 N6        29.63S
CENTENNIAL     FAIR      42  16  34 NW7       29.64F
BROOMFIELD     FAIR      41  19  42 W12       29.64F
FORT COLLINS   FAIR      38  35  89 E8        29.64F
LONGMONT       FAIR      38  34  84 W6        29.66S
$$

COZ041-046-047-076>085-087-088-280700-
...PIKES PEAK/PALMER DIVIDE AND SOUTHERN FOOTHILLS...

CITY           SKY/WX    TMP DP  RH WIND       PRES   REMARKS
COLO. SPRINGS  MOCLDY    40  29  64 N10       29.67F
A. F. ACADEMY  FAIR      33  32  94 NE10      29.66F WCI  25
SCHRIEVER AFB  MOCLDY    40  26  58 NW12G20   29.67F
ELLICOTT       FAIR     N/A N/A N/A CALM      29.65F
FALCON         FAIR      35  28  76 NW3       29.68F
FORT CARSON    FAIR      41  31  66 W5        29.65F
LIMON          MOCLDY    35  34  96 NW5       29.65F WCI  31
MONUMENT HILL  FAIR      30  27  86 W7        29.69S WCI  23
TRINIDAD       FAIR      40  35  83 S5        29.67F
$$

COZ042>045-048>051-090-091-280700-
...NORTHEAST COLORADO...

CITY           SKY/WX    TMP DP  RH WIND       PRES   REMARKS
GREELEY ARPT   FAIR      37  35  92 E6        29.65F
AKRON          CLOUDY    37  35  92 NW13      29.62S
BURLINGTON     NOT AVBL
WRAY           NOT AVBL
STERLING       MOCLDY    41  37  87 N5        29.63S
HOLYOKE        DRIZZLE   41  37  87 NE14      29.61S
FORT MORGAN    FAIR      36  34  94 CALM      29.65S
$$

COZ086-089-092>099-280700-
...SOUTHEAST COLORADO...

CITY           SKY/WX    TMP DP  RH WIND       PRES   REMARKS
PUEBLO         FAIR      41  35  79 SW9       29.64F
LA JUNTA       FAIR      41  37  86 N6        29.64F
LAMAR          FAIR      42  38  85 N9        29.60F
SPRINGFIELD      N/A     41  40  96 N12       29.61R
$$




USA.gov is the U.S. government's official web portal to all federal, state and local government web resources and services.